This demonstration page uses our WeatherBlox Daily Observations layout. Learn more.

Left ArrowRight Arrow

Hourly Observations for July 4, 2018

Temp ( °F °C ) Dew Point ( °F °C ) Humidity (%) Winds ( mph kmh ) Pressure ( in mb ) Visibility ( mi km ) Precip ( " mm )
12:15 am 00:15 Clear 80 26.5 67 19.6 66 66 SSE 9 15 29.88 1012 10 16 N/A
12:35 am 00:35 Clear 78 25.8 67 19.6 69 69 SSE 9 15 29.88 1012 10 16 N/A
12:55 am 00:55 Clear 77 25.2 67 19.5 71 71 SSE 9 15 29.88 1012 10 16 N/A
1:15 am 01:15 Clear with Nearby Thunderstorms 77 25.2 67 19.4 70 70 SSE 10 17 29.88 1012 10 16 N/A
1:35 am 01:35 Clear 77 25 67 19.4 71 71 SSE 8 13 29.88 1012 10 16 N/A
1:55 am 01:55 Clear 76 24.5 67 19.5 74 74 SSE 8 13 29.88 1012 10 16 N/A
2:15 am 02:15 Partly Cloudy 77 24.8 67 19.7 73 73 SSE 8 13 29.88 1012 10 16 N/A
2:35 am 02:35 Mostly Cloudy with Nearby Thunderstorms 75 24 68 20 78 78 NW 7 11 29.91 1013 10 16 N/A
2:55 am 02:55 Cloudy 79 26.1 68 20.1 70 70 W 18 30 29.91 1013 10 16 N/A
3:15 am 03:15 Cloudy 77 25 61 16.2 58 58 N 8 13 29.91 1013 10 16 N/A
3:35 am 03:35 Partly Cloudy with Nearby Thunderstorms 75 23.8 62 16.9 65 65 N 8 13 29.91 1013 10 16 N/A
3:55 am 03:55 Partly Cloudy 73 22.6 62 16.8 70 70 NNE 7 11 29.94 1014 10 16 N/A
4:15 am 04:15 Partly Cloudy 71 21.9 62 16.9 73 73 E 8 13 29.94 1014 10 16 N/A
4:35 am 04:35 Partly Cloudy with Nearby Thunderstorms 70 21.2 63 17 77 77 E 7 11 29.94 1014 10 16 N/A
4:55 am 04:55 Clear 71 21.7 63 17 75 75 E 9 15 29.94 1014 10 16 N/A
5:15 am 05:15 Clear 70 21.2 63 17 77 77 ESE 8 13 29.94 1014 10 16 N/A
5:35 am 05:35 Clear 70 21.2 63 17 77 77 ESE 7 11 29.94 1014 10 16 N/A
5:55 am 05:55 Clear 70 21.2 62 16.8 76 76 ESE 12 19 29.94 1014 10 16 N/A
6:15 am 06:15 Sunny 72 22 63 17.4 75 75 ESE 10 17 29.94 1014 10 16 N/A
6:35 am 06:35 Sunny 72 22.1 64 17.7 76 76 ESE 12 19 29.94 1014 10 16 N/A
6:55 am 06:55 Sunny 73 22.6 65 18.5 78 78 ESE 10 17 29.94 1014 10 16 N/A
7:15 am 07:15 Sunny 73 22.5 66 18.8 80 80 ESE 9 15 29.94 1014 10 16 N/A
7:35 am 07:35 Sunny 74 23.5 67 19.7 79 79 SE 13 20 29.94 1014 10 16 N/A
7:55 am 07:55 Sunny 75 24.1 69 20.5 80 80 SE 8 13 29.91 1013 10 16 N/A
8:15 am 08:15 Sunny 77 25 69 20.7 77 77 SE 10 17 29.91 1013 10 16 N/A
8:35 am 08:35 Sunny 78 25.5 70 21 76 76 SSE 12 19 29.91 1013 10 16 N/A
8:55 am 08:55 Sunny 79 26 69 20.7 73 73 SSE 10 17 29.91 1013 10 16 N/A
9:15 am 09:15 Sunny 80 26.7 69 20.3 68 68 SSE 10 17 29.91 1013 10 16 N/A
9:35 am 09:35 Sunny 81 27 69 20.4 67 67 S 10 17 29.91 1013 10 16 N/A
9:55 am 09:55 Sunny 82 27.5 69 20.8 67 67 S 12 19 29.88 1012 10 16 N/A
10:15 am 10:15 Sunny 82 27.8 69 20.7 65 65 S 12 19 29.88 1012 10 16 N/A
10:35 am 10:35 Sunny 83 28.3 70 21 65 65 SSE 12 19 29.88 1012 10 16 N/A
10:55 am 10:55 Sunny 83 28.5 69 20.6 62 62 SSE 14 22 29.88 1012 10 16 N/A
11:15 am 11:15 Sunny 84 28.8 70 20.9 62 62 SSE 14 22 29.88 1012 10 16 N/A
11:35 am 11:35 Sunny 85 29.3 70 21.1 61 61 SSE 16 26 29.91 1013 10 16 N/A
11:55 am 11:55 Sunny 85 29.7 70 20.9 59 59 SSE 12 19 29.91 1013 10 16 N/A
12:15 pm 12:15 Sunny 86 30.2 70 21 58 58 SSE 12 19 29.91 1013 10 16 N/A
12:30 pm 12:30 Sunny 87 30.5 70 21 57 57 SSE 13 20 29.91 1013 10 16 N/A
12:55 pm 12:55 Sunny 88 31 69 20.4 53 53 S 9 15 29.94 1014 10 16 N/A
1:15 pm 13:15 Sunny 89 31.4 70 21.1 54 54 SSW 7 11 29.94 1014 10 16 N/A
1:35 pm 13:35 Sunny 89 31.9 70 21.3 53 53 S 9 15 29.91 1013 10 16 N/A
1:55 pm 13:55 Sunny 90 32.2 70 21.2 52 52 SSE 9 15 29.91 1013 10 16 N/A
2:15 pm 14:15 Partly Cloudy 90 32.4 69 20.7 50 50 SSE 12 19 29.91 1013 10 16 N/A
2:35 pm 14:35 Sunny 91 32.5 70 20.9 50 50 SSE 16 26 29.88 1012 10 16 N/A
2:55 pm 14:55 Sunny 91 32.9 70 21.2 50 50 SSE 14 22 29.88 1012 10 16 N/A
3:15 pm 15:15 Sunny 91 33 70 20.9 49 49 SSE 14 22 29.88 1012 10 16 N/A
3:35 pm 15:35 Sunny 91 33 69 20.6 48 48 SSE 15 24 29.88 1012 10 16 N/A
3:55 pm 15:55 Sunny 92 33.2 70 20.9 48 48 SSE 10 17 29.88 1012 10 16 N/A
4:15 pm 16:15 Sunny 92 33.3 70 21 48 48 SE 14 22 29.88 1012 10 16 N/A
4:35 pm 16:35 Sunny 92 33.5 70 21 48 48 SE 10 17 29.91 1013 10 16 N/A
4:55 pm 16:55 Sunny 92 33.3 69 20.7 48 48 SSE 15 24 29.91 1013 10 16 N/A
5:15 pm 17:15 Sunny 92 33.2 68 20.2 46 46 SE 14 22 29.91 1013 10 16 N/A
5:35 pm 17:35 Sunny 92 33.5 69 20.5 46 46 SSE 14 22 29.91 1013 10 16 N/A
5:55 pm 17:55 Sunny 92 33.1 68 20.1 46 46 SE 15 24 29.91 1013 10 16 N/A
6:15 pm 18:15 Sunny 91 33 68 19.9 46 46 SSE 13 20 29.88 1012 10 16 N/A
6:35 pm 18:35 Sunny 91 32.7 68 20 47 47 SSE 13 20 29.88 1012 10 16 N/A
6:55 pm 18:55 Sunny 90 32.3 69 20.5 50 50 SSE 12 19 29.88 1012 10 16 N/A
7:15 pm 19:15 Sunny 90 32 69 20.4 50 50 SE 12 19 29.88 1012 10 16 N/A
7:35 pm 19:35 Sunny 87 30.8 69 20.4 54 54 SE 10 17 29.94 1014 10 16 N/A
7:55 pm 19:55 Sunny 87 30.3 68 20 54 54 SE 10 17 29.94 1014 10 16 N/A
8:15 pm 20:15 Sunny 86 30.1 68 20 55 55 SE 9 15 29.94 1014 10 16 N/A
8:35 pm 20:35 Sunny 85 29.5 68 20.1 57 57 ESE 7 11 29.94 1014 10 16 N/A
8:55 pm 20:55 Mostly Cloudy 85 29.3 69 20.4 59 59 ESE 8 13 29.97 1015 10 16 N/A
9:15 pm 21:15 Cloudy 81 27.2 71 21.6 72 72 ENE 10 17 30.03 1017 10 16 N/A
9:35 pm 21:35 Cloudy 79 26 68 19.8 69 69 ENE 23 37 30.03 1017 10 16 N/A
9:55 pm 21:55 Cloudy 74 23.5 65 18.4 73 73 ENE 21 33 30.09 1019 10 16 N/A
10:15 pm 22:15 Cloudy with Nearby Thunderstorms 73 22.5 64 18 76 76 ENE 15 24 30.12 1020 10 16 N/A
10:35 pm 22:35 Cloudy with Nearby Thunderstorms 72 22 65 18.1 79 79 ENE 14 22 30.18 1022 10 16 N/A
10:55 pm 22:55 Mostly Cloudy 71 21.6 64 18 80 80 E 16 26 30.18 1022 10 16 N/A
11:15 pm 23:15 Cloudy with Thunderstorms 70 21.1 65 18.1 83 83 ENE 21 33 30.18 1022 10 16 N/A
11:35 pm 23:35 Cloudy with Strong Thunderstorms 68 20.2 65 18.2 88 88 ENE 21 33 30.18 1022 4 6 0.07 1.78
11:55 pm 23:55 Cloudy with Strong Thunderstorms 67 19.6 65 18.3 92 92 NNE 20 31 30.21 1023 3 4 0.30 7.62

Powered by AerisWeather